This demonstration page uses our WeatherBlox Daily Observations layout. Learn more.

41.55636, -103.73856

Hourly Observations for May 16, 2017

Temp ( °F °C ) Dew Point ( °F °C ) Humidity (%) Winds ( mph kmh ) Pressure ( in mb ) Visibility ( mi km ) Precip ( " mm )
12:00 am 00:00 Cloudy 57 14 48 9 72 72 NW 10 17 29.59 1002 10 16.0934 0 0
12:29 am 00:29 Mostly Cloudy with Nearby Thunderstorms 58 14.4 47 8.3 67 67 N 5 7 29.56 1001 10 16.0934 0 0
12:41 am 00:41 Mostly Cloudy with Thunderstorms 57 13.9 49 9.4 74 74 WNW 8 13 29.56 1001 10 16.0934 0 0
12:53 am 00:53 Mostly Cloudy with Nearby Thunderstorms 56 13.3 49 9.4 77 77 WNW 6 9 29.56 1001 10 16.0934 0 0.0254
1:22 am 01:22 Cloudy with Light Thunderstorms 55 12.8 50 10 83 83 NE 6 9 29.56 1001 8 12.87472 0.04 1.016
1:42 am 01:42 Mostly Cloudy with Nearby Thunderstorms 55 13 50 10 82 82 NE 5 7 29.56 1001 10 16.0934 0 0
1:53 am 01:53 Partly Cloudy 55 12.8 50 10 83 83 N 5 7 29.52 1000 10 16.0934 0.04 1.016
2:53 am 02:53 Clear 54 12.2 51 10.6 90 90 ESE 5 7 29.52 1000 10 16.0934 0 0
3:53 am 03:53 Clear 52 11.1 50 10 93 93 S 5 7 29.54 1000 10 16.0934 0 0
4:53 am 04:53 Clear 51 10.6 48 8.9 89 89 NNW 9 15 29.56 1001 10 16.0934 0 0
5:53 am 05:53 Sunny 51 10.6 47 8.3 86 86 W 10 17 29.6 1002 10 16.0934 0 0
6:53 am 06:53 Sunny 53 11.7 49 9.4 86 86 NW 8 13 29.6 1002 10 16.0934 0 0
7:53 am 07:53 Partly Cloudy 58 14.4 51 10.6 78 78 NNW 6 9 29.61 1003 10 16.0934 0 0
8:46 am 08:46 Mostly Cloudy 59 15 50 10 72 72 WNW 12 19 29.62 1003 10 16.0934 0 0
8:53 am 08:53 Mostly Cloudy 59 15 50 10 72 72 NW 8 13 29.62 1003 10 16.0934 0 0
9:22 am 09:22 Partly Cloudy 60 15.6 50 10 70 70 NW 9 15 29.56 1001 10 16.0934 0 0
9:53 am 09:53 Mostly Sunny 61 16.1 51 10.6 70 70 NW 9 15 29.62 1003 10 16.0934 0 0
10:53 am 10:53 Sunny 64 17.8 52 11.1 65 65 NNW 6 9 29.61 1003 10 16.0934 0 0
11:53 am 11:53 Sunny 68 20 50 10 53 53 WNW 7 11 29.58 1002 10 16.0934 0 0
12:53 pm 12:53 undefined 71 21.7 48 8.9 44 44 undefined N/A 29.56 1001 N/A 0 0
1:53 pm 13:53 undefined N/A N/A N/A undefined N/A N/A N/A 0 0
2:53 pm 14:53 undefined N/A N/A N/A undefined N/A N/A N/A 0 0
3:36 pm 15:36 Partly Cloudy with Nearby Thunderstorms 72 22 36 2 27 27 NNW 5 7 29.38 995 10 16.0934 0 0
3:51 pm 15:51 Sunny 72 22 39 4 31 31 Calm 29.38 995 10 16.0934 0 0
3:53 pm 15:53 Sunny 71 21.7 39 3.9 31 31 Calm 29.5 999 10 16.0934 0 0
4:53 pm 16:53 Cloudy 58 14.4 47 8.3 67 67 NW 17 28 29.58 1002 10 16.0934 0 0
5:15 pm 17:15 Cloudy with Nearby Thunderstorms 58 14.4 46 7.8 65 65 NW 14 22 29.56 1001 10 16.0934 0 0.0254
5:30 pm 17:30 Cloudy with Light Rain 55 13 46 8 72 72 NW 13 20 29.56 1001 10 16.0934 0 0
5:53 pm 17:53 Cloudy with Nearby Thunderstorms 56 13.3 48 8.9 75 75 NNE 9 15 29.6 1002 10 16.0934 0 0.0254
6:02 pm 18:02 Cloudy with Light Rain 55 13 48 9 77 77 NNE 8 13 29.56 1001 10 16.0934 0 0
6:53 pm 18:53 Cloudy with Light Rain 55 12.8 49 9.4 80 80 E 5 7 29.6 1002 10 16.0934 0.06 1.524
7:53 pm 19:53 Cloudy 53 11.7 49 9.4 86 86 SE 15 24 29.53 1000 10 16.0934 0.01 0.254
8:53 pm 20:53 Cloudy 53 11.7 49 9.4 86 86 E 14 22 29.55 1001 10 16.0934 0 0
9:53 pm 21:53 Cloudy 52 11.1 48 8.9 86 86 ENE 13 20 29.54 1000 10 16.0934 0 0
10:53 pm 22:53 Clear 53 11.7 46 7.8 77 77 SSE 7 11 29.53 1000 10 16.0934 0 0
11:53 pm 23:53 Cloudy 52 11.1 47 8.3 83 83 E 8 13 29.54 1000 10 16.0934 0 0

Powered by AerisWeather